This is the latest recevied weather packets stored in our database for station/object KD8DLP-13. If no packets are shown the sender has not sent any weather packets the latest 10 day(s).
| Time | Temp. | Humidity | Pressure | Rain* | Wind** | Luminosity | Snow |
|---|---|---|---|---|---|---|---|
| 1777572660 | 13.33° C | 45% | 1016.9 hPa | 0 mm | - | 752 W/m² | - |
| 1777572359 | 13.33° C | 45% | 1016.8 hPa | 0 mm | - | 756 W/m² | - |
| 1777572056 | 12.78° C | 47% | 1016.7 hPa | 0 mm | - | 756 W/m² | - |
| 1777571756 | 13.33° C | 46% | 1017.1 hPa | 0 mm | - | 759 W/m² | - |
| 1777571454 | 13.33° C | 46% | 1017 hPa | 0 mm | - | 761 W/m² | - |
| 1777571150 | 13.33° C | 46% | 1016.9 hPa | 0 mm | - | 762 W/m² | - |
| 1777570846 | 13.89° C | 45% | 1017.1 hPa | 0 mm | - | 763 W/m² | - |
| 1777570542 | 12.78° C | 49% | 1017 hPa | 0 mm | - | 765 W/m² | - |
| 1777570239 | 12.78° C | 45% | 1017.2 hPa | 0 mm | - | 765 W/m² | - |
| 1777569933 | 12.22° C | 47% | 1017 hPa | 0 mm | - | 765 W/m² | - |
| 1777569630 | 12.22° C | 47% | 1017.2 hPa | 0 mm | - | 764 W/m² | - |
| 1777569326 | 12.22° C | 46% | 1016.9 hPa | 0 mm | - | 764 W/m² | - |
| 1777569023 | 12.78° C | 45% | 1017.2 hPa | 0 mm | - | 761 W/m² | - |
| 1777568719 | 12.78° C | 48% | 1017 hPa | 0 mm | - | 761 W/m² | - |
| 1777568417 | 12.22° C | 47% | 1017.2 hPa | 0 mm | - | 759 W/m² | - |
| 1777568114 | 13.33° C | 47% | 1017.1 hPa | 0 mm | - | 756 W/m² | - |
| 1777567811 | 12.78° C | 47% | 1017.1 hPa | 0 mm | - | 752 W/m² | - |
| 1777567507 | 12.78° C | 47% | 1017.2 hPa | 0 mm | - | 749 W/m² | - |
| 1777567204 | 13.33° C | 47% | 1017.2 hPa | 0 mm | - | 746 W/m² | - |
| 1777566903 | 13.33° C | 46% | 1017.3 hPa | 0 mm | - | 741 W/m² | - |
| 1777566600 | 12.78° C | 44% | 1017.1 hPa | 0 mm | - | 740 W/m² | - |
| 1777566297 | 12.78° C | 47% | 1017.2 hPa | 0 mm | - | 733 W/m² | - |
| 1777565994 | 12.22° C | 44% | 1017.2 hPa | 0 mm | - | 724 W/m² | - |
| 1777565689 | 12.78° C | 48% | 1017.2 hPa | 0 mm | - | 719 W/m² | - |
| 1777565386 | 12.22° C | 50% | 1017.2 hPa | 0 mm | - | 715 W/m² | - |
* Rain latest hour (hover to see other rain measurements)
** Current wind speed in m/s (hover to see current wind gust speed)